Regional Weather Roundup
Issued by NWS

Home | Current Version | Previous Version | Graphics & Text | Print | Product List | Glossary On
Versions: 1 2 3 4 5 6 7 8 9 10 11 12 13 14 15 16 17 18 19 20 21 22 23 24 25 26 27 28 29 30 31 32 33 34 35 36 37 38 39 40 41 42 43 44 45 46 47 48 49 50
000
ASUS45 KCYS 310610
RWRWY

WYOMING REGIONAL WEATHER ROUNDUP
NATIONAL WEATHER SERVICE CHEYENNE WY
1200 AM MDT FRI JUL 31 2015

NOTE:  "FAIR" INDICATES FEW OR NO CLOUDS BELOW 12,000 FEET
WITH NO SIGNIFICANT WEATHER AND/OR OBSTRUCTIONS TO VISIBILITY.

WYZ001-310700-
YELLOWSTONE NATIONAL PARK

CITY           SKY/WX    TMP DP  RH WIND       PRES   REMARKS
LK YELLOWSTONE   N/A     47  35  63 CALM      30.54R
6HR MIN TEMP:  47; 6HR MAX TEMP:  72;

W YELLOWSTONE  NOT AVBL

$$
WYZ002>013-054>058-071-098>099-310700-
NORTHERN WYOMING

CITY           SKY/WX    TMP DP  RH WIND       PRES   REMARKS
JACKSON        FAIR      50  39  66 N7        30.42S
CODY           FAIR      63  36  36 SW7       30.32S
GREYBULL       FAIR      71  38  29 SE6       30.22R
6HR MIN TEMP:  70; 6HR MAX TEMP:  91;

WORLAND        FAIR      64  26  23 CALM      30.24S
6HR MIN TEMP:  62; 6HR MAX TEMP:  89;

SHERIDAN       FAIR      59  46  62 SE3       30.26S
6HR MIN TEMP:  56; 6HR MAX TEMP:  90;

BUFFALO        FAIR      63  40  42 W7        30.34S
6HR MIN TEMP:  63; 6HR MAX TEMP:  85;

GILLETTE       FAIR      56  40  55 S3        30.29R
6HR MIN TEMP:  55; 6HR MAX TEMP:  87;

HULETT         FAIR      68  37  32 CALM      30.30R
NEWCASTLE      FAIR      66  41  39 CALM      30.28S

$$
WYZ014>020-022>026-101>103-310700-
CENTRAL WYOMING

CITY           SKY/WX    TMP DP  RH WIND       PRES   REMARKS
BIG PINEY      FAIR      55  30  38 E6        30.45R
6HR MIN TEMP:  53; 6HR MAX TEMP:  82;

PINEDALE       FAIR      48  32  53 NW7       30.45S
DUBOIS         FAIR      55  28  35 W3        30.47S
LANDER         FAIR      67  30  25 W13       30.33R
6HR MIN TEMP:  67; 6HR MAX TEMP:  88;

RIVERTON       FAIR      70  23  17 NE5       30.34R
6HR MIN TEMP:  69; 6HR MAX TEMP:  86;

CASPER         FAIR      60  37  42 E5        30.32S
6HR MIN TEMP:  60; 6HR MAX TEMP:  87;

DOUGLAS        FAIR      61  42  49 E5        30.32F
6HR MIN TEMP:  60; 6HR MAX TEMP:  88;


$$
WYZ021-027>030-104>119-310700-
SOUTHERN WYOMING

CITY           SKY/WX    TMP DP  RH WIND       PRES   REMARKS
EVANSTON       FAIR      65  26  23 N3        30.46R
6HR MIN TEMP:  65; 6HR MAX TEMP:  82;

KEMMERER       FAIR      59  28  31 NW12      30.46S
FORT BRIDGER   CLEAR     63  21  20 W9        30.47S
ROCK SPRINGS   FAIR      62  17  17 E7        30.40R
6HR MIN TEMP:  62; 6HR MAX TEMP:  82;

DIXON          FAIR      60  25  26 NE5       30.40S
RAWLINS        FAIR      59  28  30 N6        30.42R
6HR MIN TEMP:  56; 6HR MAX TEMP:  85;

SARATOGA       FAIR      54  25  32 SE5       30.44R
LARAMIE        FAIR      62  48  60 SE12      30.45S
6HR MIN TEMP:  60; 6HR MAX TEMP:  81;

CHEYENNE       FAIR      61  54  77 SW6       30.41R
6HR MIN TEMP:  61; 6HR MAX TEMP:  82;

TORRINGTON     FAIR      64  45  49 SE6       30.27S
6HR MIN TEMP:  62; 6HR MAX TEMP:  88;

PINE BLUFFS    FAIR      59  54  82 CALM      30.36R

$$



USA.gov is the U.S. government's official web portal to all federal, state and local government web resources and services.